Find Starlink 3308

NORAD ID: 50846 Int'l Des: 2022-001 Owner: SPXS Country: US Constellation: starlink operational
LEOCIRCULAR

当前视图

正在加载3D地球...

关于 Starlink 3308

正在加载描述...

即将过境

Passes for default location (London). Set your location on the main map for personalized predictions.

高度历史

Loading altitude history...

两行轨道根数

1 50846U 22001AV 26151.20750979 .00000049 00000-0 21193-4 0 9995
2 50846 53.1953 168.7910 0001305 66.9604 293.1525 15.08833224242723
Epoch: May 31, 2026 • Age: 6 hours

当前状态

高度 539.9 km
速度 7.59 km/s
星下点 2.98°N, 110.51°E
发射日期 Jan 6, 2022
运行时间 4.3 years
类型 internet

技术详情

分类 Payload
质量 297.00 kg
干质量 275.00 kg
总质量 297.00 kg
长度 0.20 m
直径 2.80 m
跨度 9.00 m
形状 Box + pan
制造商 SPXS
平台类型 Starlink
阶段状态 In Orbit
所有者/国家 SPXS/US

Most Searched